The Dalles, WA

6:13 PM PDT on May 24, 2017 (GMT -0700)
Columbia Gorge Regional-The Dalles

Weather History for KDLS - June, 2014

Change the Weather History Date:

Monday, June 16, 2014

  Actual Average Record
Temperature  
Mean Temperature 60 °F -  
Max Temperature 69 °F 79 °F 106 °F (1961)
Min Temperature 51 °F 54 °F 44 °F (1955)
Degree Days  
Heating Degree Days 6    
Growing Degree Days 10 (Base 50)    
Moisture  
Dew Point 39 °F    
Average Humidity 49    
Maximum Humidity 64    
Minimum Humidity 35    
Precipitation  
Precipitation 0.00 in - - ()
Sea Level Pressure  
Sea Level Pressure 29.88 in    
Wind  
Wind Speed 14 mph (WNW)    
Max Wind Speed 26 mph    
Max Gust Speed 38 mph    
Visibility 10 miles    
Events      
Averages and records for this station are not official NWS values.
T = Trace of Precipitation, MM = Missing Value Source: NWS Daily Summary

Daily Weather History Graph

Daily Weather History Graph

Search for Another Location

Airport or City:

Trip Planner

Search our weather history database for the weather conditions in past years. The results will help you decide how hot, cold, wet, or windy it might be!

Date:

Astronomy

Jun. 16, 2014 Rise Set
Actual Time 5:14 AM PDT 8:56 PM PDT
Civil Twilight 4:36 AM PDT 9:34 PM PDT
Nautical Twilight 3:45 AM PDT 10:25 PM PDT
Astronomical Twilight 2:36 AM PDT 11:35 PM PDT
Moon 11:38 PM PDT (6/16) 9:35 AM PDT (6/16)
Length of Visible Light 16h 57m
Length of Day
15h 41m
Waning Gibbous, 82% of the Moon is Illuminated
Jun 16
Waning Gibbous
Jun 19
Last Quarter
Jun 27
New
Jul 5
First Quarter
Jul 12
Full

Hourly Weather History & Observations

Time (PDT) Temp. Dew Point Humidity Pressure Visibility Wind Dir Wind Speed Gust Speed Precip Events Conditions
12:53 AM 55.9 °F 37.9 °F 51% 29.83 in 10.0 mi Variable 4.6 mph - N/A   Scattered Clouds
1:53 AM 54.0 °F 39.0 °F 57% 29.83 in 10.0 mi West 16.1 mph - N/A   Clear
2:53 AM 52.0 °F 37.0 °F 57% 29.85 in 10.0 mi WNW 5.8 mph - N/A   Clear
3:53 AM 52.0 °F 37.0 °F 57% 29.85 in 10.0 mi West 12.7 mph 20.7 mph N/A   Clear
4:53 AM 52.0 °F 37.9 °F 59% 29.86 in 10.0 mi West 13.8 mph - N/A   Clear
5:53 AM 51.1 °F 37.9 °F 61% 29.87 in 10.0 mi West 9.2 mph - N/A   Clear
6:53 AM 55.0 °F 37.0 °F 51% 29.87 in 10.0 mi WNW 11.5 mph - N/A   Clear
7:53 AM 55.9 °F 37.9 °F 51% 29.87 in 10.0 mi West 18.4 mph - N/A   Clear
8:53 AM 60.1 °F 39.0 °F 46% 29.87 in 10.0 mi WNW 24.2 mph 28.8 mph N/A   Clear
9:53 AM 60.1 °F 37.9 °F 44% 29.87 in 10.0 mi WNW 25.3 mph 33.4 mph N/A   Clear
10:53 AM 60.1 °F 37.0 °F 42% 29.87 in 10.0 mi West 20.7 mph 28.8 mph N/A   Scattered Clouds
11:53 AM 64.0 °F 37.0 °F 37% 29.87 in 10.0 mi West 17.3 mph 28.8 mph N/A   Mostly Cloudy
12:53 PM 66.0 °F 39.0 °F 37% 29.86 in 10.0 mi WNW 21.9 mph 32.2 mph N/A   Scattered Clouds
1:53 PM 64.0 °F 39.0 °F 40% 29.86 in 10.0 mi WNW 21.9 mph 32.2 mph N/A   Mostly Cloudy
2:53 PM 68.0 °F 39.0 °F 35% 29.85 in 10.0 mi West 21.9 mph 27.6 mph N/A   Partly Cloudy
3:53 PM 66.0 °F 39.9 °F 38% 29.86 in 10.0 mi WNW 24.2 mph 36.8 mph N/A   Partly Cloudy
4:53 PM 64.9 °F 39.0 °F 39% 29.86 in 10.0 mi WNW 26.5 mph 38.0 mph N/A   Clear
5:53 PM 64.0 °F 39.0 °F 40% 29.88 in 10.0 mi West 25.3 mph 35.7 mph N/A   Clear
6:53 PM 62.1 °F 41.0 °F 46% 29.89 in 10.0 mi West 19.6 mph - N/A   Clear
7:53 PM 57.9 °F 37.9 °F 47% 29.91 in 10.0 mi West 15.0 mph 24.2 mph N/A   Clear
8:53 PM 55.9 °F 39.9 °F 55% 29.93 in 10.0 mi NW 12.7 mph - N/A   Clear
9:53 PM 55.0 °F 43.0 °F 64% 29.95 in 10.0 mi NW 11.5 mph - N/A   Clear
10:53 PM 55.0 °F 41.0 °F 59% 29.95 in 10.0 mi West 11.5 mph 19.6 mph N/A   Clear
11:53 PM 54.0 °F 39.9 °F 59% 29.96 in 10.0 mi WNW 5.8 mph - N/A   Clear